Dewpoint
-1 -1 -1 -2 -2 -3 -3 -3 -3 -3 -4 -7 -9 -10 -13 -16 -17 -18 -13 -2 -1 1 6 5 1 2 2 2 2 6 10 10 4 6 6 8 11 7 8 11 13 13 13 13 12
-2 -1 -2 -2 -2 -3 -4 -4 -3 -3 -4 -7 -9 -11 -14 -16 -18 -18 -5 -3 -2 3 6 1 -0 -1 1 -1 1 5 9 3 1 3 5 9 10 9 11 12 13 13 13 12 12
-2 -2 -2 -2 -3 -3 -4 -5 -4 -4 -5 -8 -10 -12 -14 -16 -12 -6 -3 -0 0 6 5 1 -1 -1 -1 -1 0 3 4 0 -0 -1 2 5 9 8 10 12 12 13 13 12 12
-3 -3 -3 -2 -3 -4 -4 -6 -5 -4 -7 -8 -11 -13 -15 -11 5 -1 -6 0 4 7 3 -1 -1 -1 -0 -1 -2 -0 -3 -3 -3 -3 5 9 9 8 11 12 12 13 12 12 11
-4 -4 -4 -3 -3 -4 -5 -6 -3 -6 -8 -9 -12 -14 -13 2 2 0 -3 1 5 7 5 2 1 0 -0 -3 -2 -1 -2 -4 -3 3 5 5 9 10 12 12 12 12 12 12 11
-4 -4 -5 -5 -4 -5 -5 -7 -3 -9 -8 -9 -12 -14 -11 4 -2 -4 -5 3 5 7 4 0 0 -2 -2 -2 -1 -3 -3 -3 -0 7 6 7 8 7 12 13 13 13 12 11 11
-3 -4 -5 -5 -5 -5 -6 -7 -4 -9 -5 -9 -13 -13 -8 2 -3 -5 -3 5 5 4 1 1 0 -1 -0 -1 -4 -4 -1 -1 1 6 8 6 9 10 9 13 13 12 12 12 12
-3 -4 -5 -5 -6 -6 -6 -8 -5 -6 -2 -5 -14 -14 -6 -2 -3 -7 -3 0 4 -1 0 1 -0 0 0 -1 -4 -2 -1 1 -4 -6 6 4 7 8 8 11 14 13 12 11 12
-3 -4 -5 -5 -6 -7 -7 -9 -5 -4 -2 -1 -3 3 3 -7 -6 -5 -4 -5 -3 -2 1 0 -0 0 0 2 2 2 4 0 -1 -6 2 4 8 7 8 12 11 12 12 10 12
-2 -3 -4 -5 -6 -7 -8 -10 -4 -5 -4 -1 -0 2 -2 -6 -7 -6 -8 -6 -4 -2 -0 0 0 2 1 2 4 4 4 0 0 -2 3 9 11 9 9 11 8 7 12 11 11
-1 -2 -3 -5 -5 -6 -10 -6 4 4 -0 -4 0 -6 -5 -5 -9 -7 -8 -6 -5 -4 -0 -2 1 3 1 2 1 2 1 -5 -2 -5 12 13 13 13 10 10 12 14 12 11 11
0 -1 -3 -4 -5 -5 -8 -4 2 -0 0 0 -0 -2 -8 -7 -7 -8 -6 -8 -5 -5 -3 -2 1 -1 -0 -1 -6 -3 -2 -3 -2 9 11 12 14 12 10 9 11 11 11 11 14
-0 -1 -2 -4 -6 -3 1 -5 0 0 0 -1 -3 -3 -7 -6 -7 -11 -7 -8 -6 -5 -4 -1 -1 -3 -3 -5 -6 -7 -5 -4 -0 9 9 9 12 12 8 9 11 11 10 11 13
-1 -1 -2 -4 -5 2 -0 1 0 0 3 -1 -3 -2 -9 -7 -8 -10 -8 -9 -9 -6 -5 -4 -4 -2 -4 -9 -8 -6 -6 -5 -4 -3 1 9 14 13 11 11 11 11 11 13 10
-3 -2 -2 -3 -5 -2 -0 0 0 1 8 -2 -4 -9 -9 -9 -10 -10 -10 -9 -8 -9 -7 -5 -5 -4 -4 -7 -9 -7 -8 -7 -6 -2 1 10 13 12 12 14 12 12 12 13 12
-5 -4 -3 -3 -4 -6 -4 -2 -0 4 6 -4 -9 -8 -8 -10 -11 -10 -12 -10 -10 -9 -8 -9 -10 -9 -7 -7 -9 -9 -9 -7 -6 -2 1 7 10 12 12 13 12 13 13 14 14
-6 -5 -4 -3 -5 2 0 -1 4 6 -2 -6 -5 -8 -10 -8 -8 -10 -10 -8 -6 -5 -4 -9 -10 -11 -12 -11 -10 -9 -8 -1 5 7 13 11 8 11 9 9 12 14 14 14 15
-6 -5 -4 -5 -4 0 -0 2 7 2 -2 -7 -5 -9 -8 -10 -8 -10 -9 -7 -8 -7 -8 -6 -8 -9 -12 -12 -10 -7 -7 -1 10 10 12 12 13 12 12 8 12 13 14 15 15
-6 -3 -3 -4 -5 -0 2 5 4 3 -3 -4 -7 -9 -9 -9 -9 -9 -9 -9 -10 -11 -7 -7 -3 -6 -13 -12 -11 -7 -3 0 6 6 15 15 14 12 12 13 11 11 11 11 12
-2 0 0 5 -0 -1 3 3 1 -2 -3 -1 -3 -8 -6 -9 -8 -7 -7 -11 -11 -12 -12 -10 3 -0 -3 -5 -5 -6 -1 6 8 12 14 16 15 15 13 14 12 11 9 10 10
1 6 4 4 -3 2 3 -0 -3 -6 -5 -3 -1 -1 -1 -6 -8 -7 -6 -10 -12 -13 -12 -11 -6 2 0 -1 -1 -2 2 4 9 11 13 15 16 14 12 12 12 11 8 8 9
3 7 3 2 2 0 1 -3 -6 -6 -7 -5 -5 -3 5 6 6 -4 -5 -7 -11 -11 -8 -8 -6 0 2 5 4 5 6 6 9 12 13 11 15 12 12 10 10 11 8 7 7
3 7 3 1 3 0 -2 -4 -6 -6 -6 -6 -5 -7 1 8 11 4 -0 -4 -9 -3 3 -0 3 0 -0 6 6 8 8 9 8 11 13 14 15 13 10 9 11 9 7 7 7
6 10 3 1 -0 -1 1 2 1 -8 -6 -6 -5 -1 -3 2 6 7 6 4 -3 1 -1 -2 -1 6 10 10 10 9 6 8 10 14 15 15 12 10 13 11 10 8 7 7 7
7 9 9 9 6 -1 -2 1 -1 -2 -7 -9 -3 -1 0 5 8 9 8 8 6 7 4 -2 2 9 9 8 8 7 7 6 9 11 13 11 12 10 10 12 10 6 5 5 6
6 6 6 7 6 4 -2 0 -2 -3 -2 -4 -3 -5 5 9 9 11 10 11 10 8 8 1 4 8 11 9 10 10 7 8 7 7 10 10 14 12 10 9 6 5 6 6 6
1 6 5 7 6 7 4 2 1 -2 -2 -3 -4 3 8 8 5 5 6 7 9 9 10 8 8 7 13 11 11 11 10 9 10 8 7 12 11 9 9 8 7 7 6 6 5
Wind_Speed
13 14 15 16 16 16 16 16 16 15 14 11 9 8 7 5 5 7 11 8 7 6 7 9 12 15 14 22 11 8 3 4 4 10 5 15 9 6 9 18 21 16 33 33 28
14 15 15 16 16 17 17 17 17 16 14 10 8 7 6 5 6 11 14 11 8 6 8 9 19 22 26 20 10 3 3 3 7 6 6 16 17 11 9 16 31 33 29 30 27
15 15 16 16 17 17 17 17 17 16 12 8 7 6 5 5 3 4 14 10 10 10 11 14 16 22 20 25 3 6 2 7 9 4 15 17 16 16 11 11 23 30 28 28 27
16 16 16 17 18 18 18 17 17 14 9 7 5 5 4 2 3 1 7 10 11 11 10 12 13 14 10 2 4 4 9 4 4 3 19 11 14 22 25 21 24 25 23 30 26
17 17 17 17 18 18 18 17 16 12 7 6 5 4 3 3 6 6 10 13 13 11 12 14 23 23 8 8 7 8 4 3 3 21 22 16 10 4 28 28 23 19 19 20 21
17 17 17 18 18 18 17 16 14 8 6 5 4 3 2 4 4 6 15 16 13 12 11 13 25 14 13 5 5 5 4 2 11 24 17 12 3 9 25 27 22 18 17 17 22
18 18 18 18 18 17 16 15 11 6 5 4 4 4 6 6 3 5 12 15 12 9 15 19 12 14 21 9 5 10 6 4 7 16 6 27 5 3 18 26 29 22 19 19 25
19 19 18 18 18 17 15 13 9 5 5 5 3 4 6 3 4 6 7 11 13 4 10 15 10 14 19 20 3 6 4 4 3 1 17 14 2 6 22 18 18 19 20 20 26
19 19 18 18 17 16 14 12 8 6 5 4 1 4 8 9 12 10 11 10 5 8 10 10 9 17 23 8 6 2 4 6 5 5 8 8 4 12 17 32 33 14 12 20 24
19 18 17 17 17 15 12 11 9 6 7 6 8 6 12 14 7 13 13 14 13 10 13 13 13 7 7 3 5 7 2 7 8 6 10 14 13 11 23 19 45 21 31 28 29
19 18 17 16 15 15 10 9 8 1 9 11 7 8 2 8 12 14 14 14 14 16 7 17 4 8 13 9 10 9 10 4 6 8 16 13 9 9 22 18 19 38 35 31 30
20 18 17 15 13 13 11 6 8 11 10 17 22 23 17 13 9 11 15 13 13 6 13 6 10 16 16 4 3 6 5 8 8 24 17 14 7 9 12 16 11 10 6 2 19
20 18 16 13 11 8 7 10 6 9 8 18 24 22 13 9 14 18 19 17 9 8 9 9 14 19 6 1 6 7 6 3 8 14 8 13 7 11 11 15 22 24 12 24 47
20 18 16 12 7 6 8 14 6 11 3 7 15 20 18 12 12 17 20 19 8 11 11 10 18 16 5 4 5 6 8 3 5 4 5 3 3 5 7 14 9 27 19 35 33
20 18 13 13 8 9 5 1 6 5 3 11 13 9 19 14 12 20 16 23 10 8 6 13 11 9 5 7 8 11 5 4 3 2 4 5 6 6 7 6 5 8 16 15 19
20 19 13 13 11 5 6 8 9 1 6 8 9 7 10 18 12 24 17 20 17 7 8 11 18 7 6 7 6 8 6 9 5 1 3 5 6 5 2 6 1 13 14 20 20
19 19 15 14 7 2 1 6 2 4 5 13 14 11 10 9 9 12 9 8 5 3 7 9 9 4 5 6 6 8 1 4 4 5 2 8 8 5 12 13 2 10 19 19 20
19 18 14 13 11 9 1 2 6 11 8 8 13 14 11 11 7 11 10 7 12 10 5 7 7 10 6 9 7 6 7 5 5 1 5 7 5 4 13 16 17 14 15 19 19
18 14 10 6 13 11 5 4 5 6 10 6 14 12 9 13 9 9 11 10 11 12 8 3 8 6 9 7 10 10 5 1 5 4 6 3 7 2 11 14 24 15 15 18 17
19 10 11 4 9 15 3 5 6 14 23 9 3 12 10 13 10 9 11 12 15 15 13 10 1 2 4 4 6 6 2 7 4 3 5 4 3 5 6 8 9 9 14 13 13
14 5 12 12 16 9 4 6 10 25 27 5 10 6 6 7 12 8 9 10 15 15 11 6 3 2 3 3 4 5 3 5 7 4 4 5 5 6 7 7 8 11 16 15 12
6 4 14 14 7 6 6 7 9 24 23 4 6 9 5 12 9 8 9 7 18 11 7 5 1 3 11 10 16 16 9 7 4 1 1 3 4 7 14 19 13 9 14 11 9
12 9 11 16 4 7 12 14 22 19 8 8 7 6 4 4 7 12 2 8 13 5 5 5 4 4 7 8 7 8 3 6 3 4 6 4 7 3 8 8 11 17 16 12 7
6 3 7 16 19 12 10 12 15 22 6 15 12 14 8 4 24 8 11 11 8 11 7 5 1 5 5 5 1 6 1 9 6 4 3 8 19 4 8 11 17 20 17 13 6
3 2 5 3 8 12 12 11 14 6 5 9 9 9 10 7 5 4 9 10 17 30 18 4 1 6 7 7 2 3 8 8 4 7 13 24 22 16 14 14 22 19 15 11 10
9 8 12 15 22 10 9 9 11 12 11 6 7 13 7 4 2 6 5 3 5 12 11 10 3 5 4 7 11 8 12 11 14 11 6 20 2 9 14 19 20 20 18 15 9
12 10 8 13 12 11 6 9 12 10 20 23 10 5 10 7 14 21 20 18 9 2 5 5 5 2 5 3 4 5 1 5 6 17 11 9 11 14 8 12 15 21 18 12 6
Wind_Direction
354 353 352 350 350 348 346 345 343 340 336 331 326 320 313 298 265 235 216 185 261 266 254 275 284 271 264 259 239 252 61 320 35 98 82 120 98 59 96 76 71 114 139 141 146
350 350 350 349 348 347 346 344 342 340 335 330 326 320 313 299 265 235 183 199 236 231 240 273 298 302 251 244 229 123 117 35 59 113 130 129 121 124 139 107 96 103 124 139 148
346 346 346 346 346 346 345 344 340 336 334 329 325 318 312 324 307 239 194 193 210 216 246 277 294 304 293 271 212 189 87 34 77 351 80 50 137 153 128 127 124 130 139 151 157
343 343 343 343 344 344 346 345 339 336 336 330 326 316 318 312 55 126 193 192 202 221 249 283 300 297 287 193 187 130 114 166 108 278 82 74 45 90 96 115 126 140 146 162 167
340 339 339 339 340 342 344 344 341 338 341 334 324 318 310 291 257 301 205 195 204 222 247 270 282 276 330 113 231 86 101 122 225 87 92 99 46 76 103 113 122 136 145 165 165
337 336 336 335 336 338 341 343 342 340 342 335 318 306 263 272 318 333 177 190 202 230 264 292 286 340 310 359 25 124 122 191 85 98 115 108 328 107 120 123 133 144 157 179 167
334 333 332 331 331 335 337 339 339 333 337 332 314 295 247 226 345 317 182 188 198 225 285 314 299 327 316 297 181 237 167 157 129 121 120 109 33 284 154 146 151 154 169 182 181
331 330 329 328 327 329 331 333 328 309 321 324 313 299 250 250 175 219 202 197 202 236 280 302 329 298 295 305 239 235 199 118 95 78 173 99 134 235 174 122 31 166 181 175 164
329 328 326 324 324 324 324 321 311 273 292 295 290 327 275 212 219 200 202 199 210 257 254 286 306 286 295 298 322 9 266 148 160 171 125 108 111 18 77 120 142 239 216 162 169
327 325 323 320 320 319 318 310 295 271 271 264 236 296 230 222 193 189 192 209 204 229 245 251 261 260 280 302 293 274 303 184 146 146 112 90 48 21 15 165 152 205 219 166 167
326 324 318 317 317 317 314 311 338 200 240 224 260 225 134 222 176 193 192 220 234 212 225 235 231 244 254 157 246 230 246 353 128 129 70 87 60 3 347 24 135 250 259 173 178
326 322 316 313 313 310 304 282 1 337 299 280 259 256 271 163 176 209 191 205 238 199 233 265 228 244 259 208 290 258 230 255 131 98 91 82 35 344 352 318 333 241 141 11 58
326 322 316 311 308 301 301 261 339 336 293 290 238 233 228 230 217 198 192 197 211 228 225 223 242 242 222 121 234 248 236 272 141 80 97 94 353 343 312 318 348 351 353 93 112
325 321 318 310 297 264 293 5 335 314 300 259 193 222 218 193 244 215 184 208 211 214 237 226 251 257 189 198 259 271 263 202 154 120 185 165 222 299 321 303 337 332 9 128 154
325 319 318 302 269 263 343 26 339 299 279 159 175 198 186 184 213 164 188 221 235 217 188 246 248 262 181 231 222 253 324 334 355 294 127 359 77 273 3 314 347 348 14 57 193
323 313 305 288 274 258 273 340 323 267 240 157 141 161 165 208 215 158 181 227 258 268 278 242 259 212 232 212 225 288 328 328 310 203 359 203 125 271 259 240 276 48 36 32 51
319 304 288 262 240 104 231 283 239 234 192 154 163 173 177 216 218 153 183 220 223 202 264 269 258 230 250 327 301 228 184 298 13 34 32 11 40 240 230 258 93 75 66 56 44
321 296 280 254 222 226 26 286 248 249 233 157 161 165 192 211 207 172 179 206 241 252 257 210 262 226 200 186 224 255 195 181 171 16 149 66 225 304 354 293 80 72 72 73 63
326 302 271 233 205 186 219 219 233 240 336 278 159 152 214 219 195 162 182 204 224 225 210 242 285 244 184 185 180 259 284 184 127 38 83 167 336 304 352 1 1 93 69 68 68
331 306 246 255 184 176 217 255 283 284 300 332 227 165 188 216 197 188 185 210 228 222 207 256 330 182 302 324 291 180 210 38 15 91 131 201 190 188 297 163 308 308 99 83 67
338 311 148 190 144 185 223 235 274 279 284 306 326 350 269 216 182 211 200 226 210 240 194 225 168 239 88 239 248 310 66 72 103 80 145 153 246 219 203 231 201 277 99 86 62
339 281 174 167 184 218 236 253 258 281 293 308 323 311 320 53 329 262 213 217 226 214 171 195 308 118 225 84 88 58 54 74 88 207 123 185 266 220 213 204 192 225 116 106 79
330 282 188 185 227 240 244 250 258 279 315 301 301 277 172 72 14 273 263 351 155 101 93 17 339 318 327 354 31 97 307 91 81 86 45 35 282 173 247 268 259 160 130 122 146
334 287 179 209 250 284 296 290 294 255 261 286 298 319 276 163 201 16 22 338 60 77 72 86 31 122 176 183 183 288 150 100 122 103 140 264 264 229 234 239 268 150 150 161 160
248 334 29 306 291 244 251 280 303 306 256 254 308 302 301 338 77 63 355 348 16 4 332 103 104 93 81 59 182 255 294 319 207 157 167 209 223 218 206 205 225 143 140 129 111
356 355 332 296 299 310 217 251 286 309 308 249 224 281 36 111 106 146 190 61 75 335 334 328 238 125 106 64 33 348 340 331 273 283 36 149 109 111 140 179 158 159 134 114 103
357 338 330 287 305 325 329 272 277 254 274 287 252 93 103 171 139 133 136 139 138 283 2 323 359 60 122 129 45 2 287 296 26 285 240 135 150 136 133 160 123 111 111 109 99
Height
1539 1536 1534 1532 1529 1527 1525 1522 1520 1517 1514 1512 1511 1509 1508 1507 1507 1507 1506 1508 1508 1508 1508 1506 1506 1504 1506 1504 1506 1501 1513 1520 1505 1507 1505 1504 1504 1503 1508 1511 1511 1512 1518 1525 1531
1538 1536 1534 1531 1528 1526 1523 1521 1518 1516 1513 1511 1510 1508 1507 1506 1505 1504 1506 1506 1507 1508 1506 1505 1503 1503 1503 1501 1500 1499 1513 1504 1496 1498 1499 1501 1502 1505 1510 1514 1517 1521 1526 1530 1534
1538 1536 1533 1530 1528 1525 1523 1520 1517 1515 1512 1511 1509 1508 1507 1506 1506 1502 1504 1506 1506 1507 1506 1505 1502 1501 1498 1497 1496 1496 1505 1498 1498 1497 1497 1502 1508 1503 1508 1515 1516 1522 1526 1531 1534
1537 1535 1532 1529 1527 1524 1522 1519 1516 1513 1512 1510 1509 1508 1507 1507 1508 1504 1504 1505 1506 1506 1507 1505 1502 1501 1496 1494 1493 1498 1497 1498 1498 1497 1499 1507 1507 1506 1509 1516 1518 1522 1526 1529 1531
1536 1534 1531 1528 1526 1523 1521 1518 1515 1512 1511 1510 1509 1508 1508 1508 1504 1503 1504 1505 1506 1506 1505 1506 1503 1498 1495 1491 1493 1495 1496 1497 1496 1499 1502 1502 1511 1511 1514 1519 1523 1525 1528 1531 1532
1535 1532 1530 1527 1525 1522 1520 1517 1514 1512 1511 1510 1509 1508 1508 1508 1503 1502 1502 1505 1506 1506 1505 1503 1501 1497 1495 1492 1493 1493 1495 1496 1496 1500 1503 1505 1510 1509 1518 1519 1524 1526 1528 1530 1532
1534 1531 1528 1526 1523 1521 1518 1516 1514 1512 1511 1510 1509 1508 1508 1505 1504 1503 1503 1505 1507 1506 1505 1504 1501 1501 1500 1495 1493 1493 1498 1495 1496 1498 1509 1504 1518 1516 1516 1516 1521 1524 1527 1527 1529
1532 1530 1527 1524 1521 1519 1517 1515 1513 1512 1511 1510 1509 1508 1504 1503 1503 1504 1504 1505 1506 1507 1508 1508 1503 1502 1499 1494 1492 1495 1496 1513 1497 1497 1501 1505 1526 1512 1512 1519 1533 1526 1524 1526 1527
1530 1528 1525 1522 1520 1517 1515 1513 1511 1511 1510 1509 1509 1509 1504 1502 1502 1503 1504 1505 1506 1508 1509 1509 1507 1505 1500 1501 1508 1499 1522 1509 1506 1496 1499 1506 1521 1512 1515 1510 1528 1527 1521 1521 1524
1528 1526 1523 1521 1518 1515 1513 1511 1510 1510 1509 1509 1509 1512 1501 1497 1499 1501 1504 1505 1507 1509 1509 1509 1508 1507 1504 1510 1527 1517 1511 1504 1510 1499 1499 1511 1522 1515 1517 1512 1517 1523 1516 1508 1514
1526 1524 1521 1519 1516 1514 1512 1510 1510 1509 1508 1504 1500 1495 1494 1495 1499 1500 1503 1504 1505 1507 1510 1506 1514 1519 1505 1500 1492 1497 1505 1500 1500 1494 1515 1524 1526 1521 1512 1516 1537 1530 1525 1507 1511
1524 1521 1519 1517 1515 1513 1510 1509 1508 1510 1503 1498 1496 1496 1492 1494 1498 1499 1502 1504 1503 1508 1504 1509 1516 1495 1491 1489 1491 1494 1500 1504 1498 1506 1514 1520 1529 1523 1513 1507 1511 1519 1507 1519 1522
1521 1518 1516 1514 1512 1511 1509 1508 1508 1507 1505 1491 1489 1490 1491 1494 1494 1495 1499 1501 1501 1505 1503 1511 1497 1488 1489 1489 1496 1497 1502 1499 1505 1512 1517 1519 1542 1535 1519 1512 1501 1497 1504 1511 1514
1519 1516 1514 1512 1512 1509 1508 1507 1507 1508 1512 1489 1481 1486 1488 1491 1491 1490 1494 1498 1497 1503 1498 1499 1487 1488 1488 1493 1493 1509 1485 1486 1492 1506 1535 1511 1561 1544 1530 1522 1510 1511 1508 1513 1517
1516 1513 1512 1510 1508 1507 1508 1506 1507 1508 1538 1471 1477 1478 1482 1487 1482 1487 1491 1493 1494 1493 1495 1497 1488 1488 1489 1489 1486 1497 1482 1486 1489 1503 1512 1526 1552 1547 1539 1526 1515 1516 1514 1515 1514
1513 1510 1509 1507 1506 1507 1507 1508 1507 1518 1524 1474 1473 1478 1481 1482 1482 1484 1489 1491 1488 1489 1486 1485 1479 1478 1480 1478 1479 1480 1485 1491 1492 1507 1544 1525 1543 1560 1551 1532 1521 1521 1520 1520 1524
1509 1506 1504 1504 1504 1505 1505 1506 1517 1522 1462 1475 1476 1475 1480 1482 1481 1483 1489 1492 1499 1507 1506 1485 1481 1473 1474 1484 1479 1484 1497 1540 1544 1551 1567 1542 1541 1548 1532 1526 1521 1523 1523 1526 1529
1504 1500 1499 1500 1501 1504 1505 1507 1523 1475 1467 1457 1465 1471 1482 1477 1478 1480 1489 1498 1487 1489 1500 1508 1511 1478 1470 1480 1490 1490 1498 1534 1554 1554 1557 1547 1560 1554 1542 1533 1526 1528 1526 1525 1532
1499 1496 1494 1495 1498 1503 1506 1515 1495 1474 1462 1453 1461 1477 1481 1473 1472 1477 1484 1490 1482 1479 1502 1498 1496 1460 1465 1468 1475 1488 1504 1486 1518 1517 1555 1567 1558 1543 1544 1536 1535 1533 1534 1532 1535
1496 1494 1492 1494 1496 1501 1504 1503 1485 1467 1463 1455 1468 1465 1481 1473 1475 1477 1482 1472 1473 1468 1468 1479 1500 1470 1467 1466 1468 1476 1476 1514 1521 1560 1566 1573 1563 1554 1551 1537 1540 1541 1536 1538 1539
1496 1494 1489 1492 1496 1500 1504 1491 1477 1468 1464 1461 1464 1467 1464 1465 1464 1470 1472 1464 1460 1461 1461 1467 1481 1483 1472 1477 1484 1484 1491 1497 1521 1539 1564 1572 1563 1539 1537 1534 1531 1542 1536 1536 1541
1497 1496 1492 1492 1497 1493 1492 1482 1473 1466 1461 1457 1458 1462 1464 1474 1477 1467 1465 1459 1451 1455 1465 1461 1476 1502 1491 1486 1479 1489 1505 1505 1537 1545 1549 1548 1557 1520 1524 1522 1534 1537 1537 1537 1541
1499 1495 1491 1492 1495 1489 1480 1474 1471 1465 1459 1459 1460 1458 1462 1474 1502 1469 1456 1452 1447 1453 1464 1467 1489 1512 1498 1493 1481 1502 1504 1507 1517 1531 1555 1556 1554 1521 1524 1527 1534 1535 1534 1537 1543
1503 1495 1489 1490 1487 1484 1483 1475 1471 1461 1462 1461 1462 1458 1458 1467 1479 1479 1470 1465 1455 1460 1463 1465 1479 1500 1525 1515 1510 1511 1497 1501 1519 1547 1561 1567 1539 1527 1527 1529 1533 1531 1532 1537 1542
1502 1495 1497 1494 1487 1482 1480 1474 1469 1463 1459 1460 1463 1462 1463 1473 1476 1483 1484 1475 1467 1474 1472 1468 1491 1497 1504 1506 1506 1502 1501 1501 1519 1521 1546 1533 1532 1521 1520 1528 1532 1528 1533 1537 1541
1506 1504 1498 1492 1482 1473 1473 1473 1470 1463 1463 1462 1465 1461 1463 1473 1473 1491 1489 1490 1495 1485 1489 1475 1490 1489 1513 1511 1509 1510 1501 1499 1501 1503 1509 1510 1528 1515 1517 1525 1529 1530 1533 1537 1540
1510 1507 1504 1492 1483 1480 1474 1471 1467 1465 1461 1458 1457 1463 1469 1472 1468 1469 1474 1480 1478 1499 1502 1507 1503 1490 1527 1516 1515 1524 1509 1508 1505 1499 1507 1517 1516 1515 1519 1524 1528 1531 1534 1537 1540